Location: Ar Ranvel
(48.3000°N, 4.8833°W)
Time: 22:02:15
(UTC+00:00)

Meteor 2-10 Rocket - Pass Details

Date: 02 November 2021
Orbit: 733 x 885 km, 81.2° (Epoch: 30 November)

Event Time Altitude Azimuth Distance (km) Brightness Sun altitude
Rises 05:48:58 0° 336° (NNW) 3,176 6.4 -13.3°
Reaches altitude 10° 05:51:45 10° 321° (NW) 2,246 5.5 -12.9°
Maximum altitude 05:55:30 22° 273° (W) 1,596 4.5 -12.3°
Drops below altitude 10° 05:59:15 10° 224° (SW) 2,251 5.6 -11.7°
Sets 06:02:03 0° 209° (SSW) 3,185 6.5 -11.2°
